Date,TemperatureHighF,TemperatureAvgF,TemperatureLowF,DewpointHighF,DewpointAvgF,DewpointLowF,HumidityHigh,HumidityAvg,HumidityLow,PressureMaxIn,PressureMinIn,WindSpeedMaxMPH,WindSpeedAvgMPH,GustSpeedMaxMPH,PrecipitationSumIn
2013-1-1,48,45,42,47,43,32,97,91,62,30.12,29.98,5,0,9,0.77
2013-1-2,45,40,38,44,34,32,96,82,75,30.20,30.03,7,2,14,0.00
2013-1-3,45,38,33,33,28,22,82,68,45,30.39,30.17,6,2,10,0.00
2013-1-4,47,36,29,25,22,16,77,60,31,30.47,30.36,4,1,6,0.00
2013-1-5,47,36,27,36,27,23,89,72,40,30.42,30.27,5,1,9,0.01
2013-1-6,49,42,39,40,36,30,96,79,58,30.32,30.17,6,2,7,0.05
2013-1-7,49,38,29,31,28,25,86,68,47,30.42,30.31,9,2,12,0.00
2013-1-8,56,50,47,42,40,35,81,69,52,30.33,30.30,3,1,4,0.00
2013-1-9,55,51,48,52,48,42,97,90,78,30.44,30.33,6,1,8,0.09
2013-1-10,63,54,50,56,51,49,97,90,75,30.42,30.11,14,3,27,0.04
2013-1-11,67,64,62,63,61,56,97,90,77,30.13,30.05,18,7,22,0.26
2013-1-12,71,66,63,66,62,58,97,89,74,30.10,29.98,8,3,12,0.05
2013-1-13,68,64,54,63,60,52,96,85,74,30.04,29.92,10,5,14,1.23
2013-1-14,52,43,38,50,41,36,96,94,88,30.27,30.05,8,4,9,1.38
2013-1-15,43,41,39,42,40,38,97,97,96,30.17,30.00,7,2,9,1.19
2013-1-16,48,45,41,47,43,40,98,96,91,30.08,29.94,5,1,7,0.11
2013-1-17,44,41,37,42,35,25,94,80,58,30.34,29.76,21,8,26,0.17
2013-1-18,49,38,29,30,26,19,92,65,32,30.57,30.36,5,1,7,0.00
2013-1-19,55,39,26,34,28,25,96,69,37,30.46,30.23,9,3,13,0.00
2013-1-20,60,46,34,37,32,28,80,60,39,30.23,30.13,3,1,7,0.00
2013-1-21,48,37,30,34,22,14,94,59,25,30.26,30.11,7,2,11,0.00
2013-1-22,40,31,25,14,8,4,52,38,24,30.41,30.25,9,3,12,0.00
2013-1-23,52,39,31,34,19,10,69,46,36,30.41,30.17,7,2,10,0.00
2013-1-24,50,40,30,40,20,4,68,47,25,30.39,30.18,9,4,12,0.00
2013-1-25,36,34,31,35,24,6,96,71,34,30.39,30.15,12,3,13,0.10
2013-1-26,49,39,32,36,32,29,96,79,50,30.34,30.21,4,1,8,0.00
2013-1-27,51,41,32,36,32,28,87,70,52,30.45,30.34,11,3,15,0.00
2013-1-28,60,50,44,48,40,31,86,68,57,30.38,30.24,9,5,12,0.00
2013-1-29,59,52,44,55,49,42,95,89,84,30.25,29.88,5,0,6,0.00
2013-1-30,67,57,41,64,53,28,96,86,60,29.85,29.55,16,8,23,1.38
2013-1-31,47,39,35,28,23,19,62,53,34,30.13,29.81,11,5,14,0.00
2013-2-1,45,32,23,32,13,4,72,47,25,30.45,30.08,12,4,16,0.00
2013-2-2,36,26,22,32,14,-100,90,70,59,30.40,30.15,7,-54,10,0.04
2013-2-3,52,18,38,35,-53,-100,86,17,33,30.17,30.03,10,-631,20,0.01
2013-2-4,-200,0,200,-100,-100,-100,0,0,100,30.15,29.96,0,-999,0,0.00
2013-2-5,63,24,56,43,-46,-100,61,17,35,30.03,29.93,6,-606,13,0.00
2013-2-6,64,23,41,42,-45,-100,97,20,31,30.20,30.03,4,-594,8,0.00
2013-2-7,-200,0,200,-100,-100,-100,0,0,100,30.12,29.96,0,-999,0,0.00
2013-2-8,54,45,39,38,32,29,70,62,50,30.27,30.05,11,7,19,0.00
2013-2-9,55,42,33,32,28,26,78,60,34,30.35,30.23,11,4,14,0.00
2013-2-10,56,49,43,49,37,26,93,68,32,30.25,30.02,16,6,22,0.56
2013-2-11,58,53,44,51,39,33,84,59,45,30.14,30.07,3,1,6,0.09
2013-2-12,51,46,38,40,34,28,89,65,41,30.15,29.86,9,2,12,0.06
2013-2-13,48,44,41,46,39,32,96,83,68,30.02,29.70,9,3,18,0.06
2013-2-14,58,46,35,36,32,28,83,61,37,30.10,30.01,7,2,11,0.00
2013-2-15,58,44,34,40,34,27,92,69,44,30.11,30.01,11,3,13,0.00
2013-2-16,40,35,29,28,18,8,69,53,31,30.20,30.04,12,5,19,0.00
2013-2-17,46,33,20,20,13,8,77,46,24,30.33,30.20,6,2,8,0.00
2013-2-18,60,43,26,29,24,20,79,50,28,30.34,30.02,18,6,28,0.00
2013-2-19,54,46,39,44,28,12,95,57,21,30.22,29.96,16,6,20,0.47
2013-2-20,42,36,30,21,15,8,68,43,24,30.28,30.19,8,3,9,0.00
2013-2-21,52,40,31,39,23,15,95,55,28,30.24,29.95,7,3,11,0.75
2013-2-22,49,46,41,44,42,39,97,88,76,30.10,30.01,11,5,14,0.23
2013-2-23,56,48,43,47,45,40,97,88,71,30.04,29.84,5,1,8,0.20
2013-2-24,59,45,35,40,31,25,92,60,29,30.09,29.93,7,2,9,0.00
2013-2-25,55,47,40,42,30,23,72,51,41,30.03,29.78,10,4,13,0.00
2013-2-26,50,45,40,44,40,34,95,84,60,29.76,29.52,13,7,16,0.72
2013-2-27,55,45,40,36,33,30,84,64,42,29.90,29.75,9,4,14,0.00
2013-2-28,43,39,37,30,26,24,68,60,54,30.04,29.86,11,4,11,0.00
2013-3-1,40,38,35,32,29,26,86,69,62,30.04,29.99,5,2,6,0.01
2013-3-2,38,36,32,31,26,22,83,70,58,30.10,29.98,10,4,14,0.00
2013-3-3,40,33,28,22,19,14,75,58,37,30.14,30.07,7,4,14,0.00
2013-3-4,54,40,26,31,24,19,83,56,28,30.22,30.00,5,1,7,0.00
2013-3-5,57,48,38,54,41,24,93,75,55,30.03,29.65,15,5,19,0.55
2013-3-6,41,36,33,30,24,19,86,62,54,30.27,29.93,15,8,19,0.00
2013-3-7,48,38,33,30,27,25,75,64,48,30.37,30.25,12,5,12,0.00
2013-3-8,57,43,32,28,25,20,78,54,24,30.39,30.27,9,4,11,0.00
2013-3-9,61,50,40,33,29,27,65,47,30,30.32,30.16,7,3,9,0.00
2013-3-10,70,60,49,40,33,28,58,38,21,30.15,29.97,15,8,24,0.00
2013-3-11,62,56,42,54,48,38,94,76,45,29.99,29.73,16,8,25,0.71
2013-3-12,58,46,39,38,30,25,84,56,29,30.13,29.91,8,4,13,0.00
2013-3-13,48,40,33,31,25,18,84,57,33,30.35,30.10,10,4,16,0.00
2013-3-14,54,39,29,36,20,13,81,49,21,30.43,30.26,7,3,12,0.01
2013-3-15,75,53,34,44,38,32,94,62,29,30.29,29.94,10,3,12,0.00
2013-3-16,77,67,58,49,43,40,55,42,28,29.94,29.81,11,6,16,0.00
2013-3-17,72,64,55,54,47,43,74,56,38,29.94,29.84,12,5,21,0.00
2013-3-18,62,57,52,56,52,48,97,86,71,29.88,29.74,15,6,20,0.52
2013-3-19,61,51,39,53,30,15,97,51,20,30.13,29.87,10,4,16,0.00
2013-3-20,57,47,39,30,18,9,65,32,19,30.16,29.93,13,4,22,0.00
2013-3-21,46,36,26,29,13,4,68,40,24,30.07,29.95,9,4,12,0.00
2013-3-22,46,40,34,33,21,15,70,47,39,30.08,30.00,5,1,9,0.00
2013-3-23,53,45,39,44,38,31,93,80,62,30.03,29.80,6,2,8,0.18
2013-3-24,60,52,43,53,44,29,97,75,53,29.68,29.42,15,7,20,1.09
2013-3-25,42,37,34,28,24,21,72,59,51,30.10,29.68,10,6,20,0.00
2013-3-26,40,36,33,28,25,23,82,66,54,30.33,30.09,9,5,13,0.00
2013-3-27,53,41,28,28,24,19,83,54,28,30.39,30.28,7,2,13,0.00
2013-3-28,60,45,30,33,28,25,90,57,27,30.39,30.25,8,1,11,0.00
2013-3-29,57,45,36,41,35,28,90,68,37,30.35,30.22,8,2,11,0.00
2013-3-30,63,51,44,54,45,41,96,82,50,30.24,30.00,5,1,7,0.29
2013-3-31,65,58,54,58,55,52,97,91,62,29.99,29.84,7,2,8,0.36
2013-4-1,69,56,43,56,44,34,98,69,33,30.07,29.88,9,2,11,0.01
2013-4-2,58,49,41,36,26,18,64,42,24,30.24,30.07,6,3,10,0.00
2013-4-3,56,50,43,28,23,19,47,35,24,30.24,30.14,9,4,12,0.00
2013-4-4,52,44,41,44,41,23,96,90,32,30.16,29.99,4,1,6,1.22
2013-4-5,67,53,42,44,39,31,96,67,27,30.09,29.99,7,2,8,0.04
2013-4-6,73,57,39,44,38,35,92,55,27,30.18,30.04,10,3,13,0.00
2013-4-7,74,58,50,48,42,38,71,56,31,30.15,30.04,12,4,15,0.00
2013-4-8,78,72,62,55,52,51,71,51,39,30.08,30.00,13,7,16,0.00
2013-4-9,82,67,54,58,54,50,90,64,39,30.17,30.00,10,2,18,0.00
2013-4-10,84,68,56,59,55,52,87,67,36,30.08,29.97,10,3,16,0.00
2013-4-11,79,72,62,64,61,59,96,70,52,29.83,29.55,14,9,26,1.04
2013-4-12,67,59,50,61,44,33,95,61,28,29.95,29.60,8,4,29,0.01
2013-4-13,75,59,44,43,39,30,91,54,19,30.07,29.95,5,1,13,0.00
2013-4-14,63,55,49,54,47,42,95,76,51,30.03,29.92,11,1,20,0.06
2013-4-15,80,65,55,58,56,53,96,74,45,30.08,29.92,9,3,17,0.00
2013-4-16,80,69,62,65,60,56,88,73,56,30.21,30.08,8,4,18,0.00
2013-4-17,86,70,62,65,62,58,96,79,44,30.18,30.04,11,2,15,0.89
2013-4-18,81,70,58,63,58,52,98,70,37,30.04,29.78,14,6,26,0.01
2013-4-19,74,59,50,64,50,34,94,73,50,30.01,29.65,15,6,28,0.88
2013-4-20,63,58,50,34,29,25,52,34,24,30.28,30.19,5,2,15,0.00
2013-4-21,69,56,46,40,35,31,63,47,27,30.37,30.22,4,1,11,0.00
2013-4-22,75,58,45,47,42,36,94,59,26,30.32,30.12,5,1,12,0.00
2013-4-23,76,62,46,49,44,35,87,55,35,30.21,30.01,9,4,17,0.00
2013-4-24,69,61,49,61,51,39,89,71,60,30.22,29.98,13,5,22,0.02
2013-4-25,58,48,42,40,36,28,77,64,31,30.35,30.22,5,2,15,0.00
2013-4-26,72,58,44,51,39,33,92,53,27,30.38,30.24,5,1,13,0.36
2013-4-27,57,54,52,54,52,51,97,95,89,30.36,30.10,5,0,13,0.91
2013-4-28,60,58,57,59,56,53,97,93,81,30.11,29.90,10,4,21,1.55
2013-4-29,76,65,58,57,54,51,95,70,44,30.02,29.91,5,2,10,0.00
2013-4-30,80,65,53,60,54,49,98,73,34,30.06,29.94,6,1,14,0.00
2013-5-1,76,66,57,60,57,53,96,73,52,30.16,30.06,7,2,12,0.00
2013-5-2,75,66,54,60,55,52,93,69,48,30.16,30.07,8,2,15,0.00
2013-5-3,70,63,58,57,54,52,92,74,57,30.10,29.93,11,4,24,0.01
2013-5-4,64,54,50,55,52,49,97,92,64,29.94,29.86,10,2,22,2.26
2013-5-5,64,52,47,52,49,46,98,90,56,29.88,29.75,8,1,22,1.02
2013-5-6,57,51,46,52,48,45,97,91,72,29.91,29.77,8,1,15,0.15
2013-5-7,74,59,48,54,50,47,97,74,41,29.98,29.88,6,1,14,0.00
2013-5-8,77,67,54,58,55,52,92,67,46,30.04,29.94,5,1,11,0.00
2013-5-9,83,69,56,61,56,47,97,67,31,30.09,29.99,7,2,13,0.00
2013-5-10,74,67,58,60,58,56,94,72,54,30.05,29.92,9,3,18,0.00
2013-5-11,76,68,60,64,59,51,90,73,56,29.99,29.87,7,3,17,0.01
2013-5-12,67,59,52,51,36,27,87,47,24,30.14,29.98,7,3,16,0.00
2013-5-13,71,57,41,43,35,26,86,49,20,30.26,30.13,7,2,16,0.00
2013-5-14,83,64,44,55,48,42,91,60,32,30.24,30.05,9,3,19,0.00
2013-5-15,88,73,58,58,54,49,86,56,27,30.14,29.97,7,2,13,0.00
2013-5-16,84,71,60,62,58,55,87,64,41,30.05,29.94,7,2,14,0.00
2013-5-17,80,70,62,65,61,57,89,74,53,30.07,29.99,7,1,14,0.05
2013-5-18,76,69,65,70,66,63,97,90,73,30.04,29.97,8,3,15,0.72
2013-5-19,71,67,60,69,65,59,96,94,91,30.05,29.93,8,2,16,1.85
2013-5-20,85,70,58,68,63,58,98,82,54,30.10,29.98,6,1,12,0.01
2013-5-21,89,74,63,70,65,62,97,77,46,30.02,29.86,9,2,17,0.00
2013-5-22,86,72,65,69,66,63,95,82,49,29.94,29.82,9,2,23,0.55
2013-5-23,79,69,64,66,60,52,93,75,41,30.01,29.88,10,2,23,0.00
2013-5-24,74,66,58,54,49,38,80,57,28,30.24,30.01,7,2,17,0.00
2013-5-25,79,64,52,54,46,38,85,57,27,30.33,30.17,3,1,10,0.00
2013-5-26,83,67,55,59,53,49,93,65,33,30.26,30.14,4,1,8,0.00
2013-5-27,85,72,58,62,58,53,94,66,35,30.20,30.06,8,2,16,0.00
2013-5-28,87,75,63,63,60,55,91,61,34,30.15,30.05,10,3,23,0.00
2013-5-29,86,76,64,65,60,56,80,61,38,30.18,30.07,10,4,16,0.00
2013-5-30,83,75,66,65,63,62,89,68,51,30.19,30.06,10,4,20,0.00
2013-5-31,84,77,68,66,64,62,86,66,48,30.14,30.01,10,5,19,0.00
2013-6-1,84,76,72,73,67,63,93,73,54,30.05,29.93,12,5,24,0.15
2013-6-2,83,74,68,71,68,64,96,84,56,29.96,29.84,6,2,14,0.43
2013-6-3,83,73,65,67,63,57,97,75,44,29.97,29.87,6,1,9,0.01
2013-6-4,84,72,60,64,59,54,94,67,38,30.01,29.94,4,1,10,0.00
2013-6-5,82,70,66,70,66,63,97,87,64,30.00,29.88,9,1,18,1.09
2013-6-6,83,75,66,69,67,65,97,78,60,29.91,29.72,7,2,14,0.01
2013-6-7,83,72,66,69,67,64,96,86,55,29.84,29.69,2,0,8,0.28
2013-6-8,83,73,66,67,65,61,97,78,49,30.03,29.84,7,2,15,0.00
2013-6-9,83,72,67,72,68,65,95,88,62,30.06,29.93,8,2,22,0.44
2013-6-10,86,76,67,70,65,60,95,74,41,29.97,29.86,8,4,17,0.65
2013-6-11,91,79,69,72,69,66,96,73,44,30.01,29.92,5,1,20,0.12
2013-6-12,94,80,72,75,72,70,93,78,46,30.04,29.92,3,1,7,0.00
2013-6-13,90,81,74,73,70,64,78,68,55,29.93,29.72,9,4,23,0.00
2013-6-14,84,74,66,65,59,54,78,60,37,29.99,29.85,3,1,11,0.00
2013-6-15,87,76,63,64,61,58,88,63,39,30.10,30.00,8,2,16,0.00
2013-6-16,89,75,66,72,66,63,92,75,47,30.06,29.96,7,2,18,0.29
2013-6-17,85,76,71,72,68,65,92,77,63,30.02,29.91,8,2,19,0.04
2013-6-18,82,74,70,72,68,66,96,84,66,29.92,29.84,6,2,13,0.40
2013-6-19,85,74,64,69,65,62,95,74,46,30.04,29.92,4,1,10,0.00
2013-6-20,88,75,67,70,67,63,96,78,47,30.17,30.04,8,1,19,0.01
2013-6-21,87,76,68,69,66,59,96,75,41,30.23,30.11,5,1,12,0.00
2013-6-22,87,79,70,68,64,61,92,63,44,30.20,30.06,4,1,9,0.00
2013-6-23,89,83,75,69,67,65,80,58,47,30.16,30.05,7,4,16,0.00
2013-6-24,90,78,70,71,69,65,94,75,46,30.19,30.05,8,2,16,0.00
2013-6-25,90,79,71,74,70,65,91,74,43,30.13,29.98,7,2,15,0.00
2013-6-26,91,82,72,72,70,67,92,71,48,30.03,29.86,6,2,15,0.00
2013-6-27,90,82,77,74,71,65,84,70,55,29.93,29.77,6,3,14,0.00
2013-6-28,90,78,69,73,70,66,95,77,49,29.83,29.64,11,2,28,0.07
2013-6-29,88,76,69,70,64,55,96,70,32,29.71,29.64,4,1,14,0.01
2013-6-30,88,75,65,66,61,53,92,66,31,29.78,29.66,5,1,14,0.17
2013-7-1,80,71,65,71,66,60,97,86,56,29.89,29.76,5,1,15,0.00
2013-7-2,86,73,67,69,67,63,97,83,47,30.02,29.89,8,2,14,0.01
2013-7-3,74,71,69,71,68,65,95,90,79,30.13,30.02,7,1,14,0.06
2013-7-4,76,71,68,72,68,66,97,91,76,30.13,30.04,7,3,18,0.19
2013-7-5,74,71,70,72,69,67,95,93,86,30.16,30.07,7,4,14,0.51
2013-7-6,72,70,69,71,69,68,97,97,96,30.13,30.08,4,1,8,0.72
2013-7-7,78,72,68,74,70,68,98,95,82,30.15,30.07,6,1,13,0.68
2013-7-8,87,76,71,77,72,70,97,88,63,30.19,30.07,4,0,9,0.29
2013-7-9,87,78,73,75,73,71,96,86,63,30.15,30.02,4,0,10,0.24
2013-7-10,89,77,70,75,71,68,95,83,57,30.06,29.92,5,1,18,0.05
2013-7-11,88,79,70,73,71,69,97,79,56,29.97,29.85,5,1,9,0.67
2013-7-12,84,76,70,72,67,62,93,76,53,29.95,29.87,4,1,14,0.00
2013-7-13,84,74,64,69,65,62,93,76,59,30.01,29.93,10,3,19,0.00
2013-7-14,85,83,79,72,71,69,77,67,62,30.12,30.08,7,3,13,0.11
2013-7-15,88,82,75,72,69,66,89,65,50,30.26,30.17,7,2,15,0.00
2013-7-16,90,78,71,77,71,69,97,81,53,30.29,30.20,5,1,10,0.07
2013-7-17,91,89,87,73,71,70,63,56,50,30.15,30.12,3,1,12,0.00
2013-7-18,89,84,75,71,70,68,83,63,51,30.17,30.04,4,1,8,0.00
2013-7-19,92,82,74,74,71,68,95,71,47,30.09,29.93,3,1,11,0.00
2013-7-20,92,81,72,73,70,65,93,71,42,30.00,29.87,6,2,13,0.00
2013-7-21,86,76,73,74,71,70,94,86,62,29.99,29.91,5,2,16,1.26
2013-7-22,84,76,71,71,69,66,93,80,59,29.97,29.84,6,2,16,0.00
2013-7-23,81,77,72,72,70,68,86,79,72,29.92,29.82,6,2,16,0.00
2013-7-24,84,76,72,76,70,65,92,80,63,29.87,29.80,2,1,15,0.12
2013-7-25,86,76,66,69,65,62,92,71,47,30.01,29.87,4,1,12,0.00
2013-7-26,88,76,65,69,65,61,90,70,45,30.05,29.95,5,1,13,0.00
2013-7-27,87,76,70,70,68,64,92,76,48,29.97,29.85,4,1,13,0.10
2013-7-28,83,76,72,68,65,61,88,71,55,30.04,29.90,3,1,13,0.00
2013-7-29,81,71,63,64,59,55,80,66,46,30.17,30.05,2,0,11,0.00
2013-7-30,86,75,65,69,65,61,90,72,48,30.19,30.08,3,0,11,0.00
2013-7-31,77,72,68,72,68,63,96,87,77,30.11,29.95,6,2,16,0.55
2013-8-1,86,78,72,71,69,65,93,76,51,29.97,29.92,4,1,16,0.00
2013-8-2,86,76,66,68,64,60,95,70,41,30.02,29.95,3,0,16,0.00
2013-8-3,83,76,68,71,68,66,93,78,61,30.03,29.98,3,0,10,0.00
2013-8-4,87,78,71,72,67,62,92,71,48,30.04,29.98,4,1,11,0.00
2013-8-5,87,75,66,66,61,56,77,63,40,30.06,29.95,2,0,11,0.00
2013-8-6,85,77,72,73,68,66,94,76,56,29.98,29.93,4,1,11,0.24
2013-8-7,84,75,72,73,71,70,95,89,70,30.00,29.94,7,2,25,0.41
2013-8-8,86,76,72,74,72,70,96,87,68,30.02,29.95,5,2,25,0.10
2013-8-9,89,78,71,77,72,70,97,83,57,30.04,29.96,6,2,25,0.02
2013-8-10,86,79,74,75,73,71,95,82,64,30.09,29.94,5,1,9,0.01
2013-8-11,84,74,72,74,72,70,96,92,70,30.03,29.98,5,0,17,0.02
2013-8-12,86,73,70,76,72,67,97,95,70,30.00,29.90,4,1,6,0.75
2013-8-13,86,81,76,71,70,68,80,69,55,29.88,29.76,3,1,4,0.00
2013-8-14,76,73,69,69,64,58,82,75,63,29.92,29.82,3,1,3,0.00
2013-8-15,77,70,65,65,60,57,77,69,59,30.05,29.91,4,1,8,0.00
2013-8-16,72,69,66,63,61,59,83,76,69,30.11,30.02,6,1,10,0.00
2013-8-17,73,69,66,65,64,62,93,85,74,30.14,30.08,4,0,7,0.01
2013-8-18,75,70,66,70,67,64,96,89,77,30.19,30.10,6,1,12,0.28
2013-8-19,79,72,68,71,69,67,97,90,72,30.15,30.06,1,0,12,0.55
2013-8-20,85,76,70,71,70,68,96,82,60,30.17,30.08,5,1,9,0.00
2013-8-21,79,74,72,74,71,70,95,90,74,30.20,30.12,5,1,10,0.14
2013-8-22,84,75,72,73,72,69,97,89,66,30.18,30.05,3,0,10,0.09
2013-8-23,88,76,70,73,70,67,97,82,53,30.10,29.90,4,0,6,0.01
2013-8-24,84,73,69,71,68,66,94,85,64,30.10,29.95,7,1,15,0.62
2013-8-25,83,75,66,71,65,60,97,75,46,30.24,30.12,5,1,15,0.00
2013-8-26,84,74,64,66,63,59,95,71,49,30.23,30.12,2,0,8,0.00
2013-8-27,86,75,65,68,65,63,94,75,49,30.14,30.02,3,0,10,0.00
2013-8-28,88,79,69,73,70,67,94,75,54,30.04,29.96,1,0,10,0.00
2013-8-29,89,80,71,74,71,69,93,75,55,30.00,29.91,2,0,7,0.00
2013-8-30,88,78,74,75,73,72,95,85,62,29.97,29.89,5,1,10,0.08
2013-8-31,91,80,72,75,72,67,95,78,50,29.94,29.82,4,1,10,0.00
2013-9-1,84,76,73,74,72,70,94,88,70,29.90,29.83,5,1,13,0.32
2013-9-2,84,77,72,72,71,69,96,82,60,29.94,29.83,5,1,13,0.00
2013-9-3,88,79,73,72,69,64,91,72,46,29.97,29.84,4,1,13,0.00
2013-9-4,85,75,66,68,64,61,92,69,46,30.08,29.97,2,0,13,0.00
2013-9-5,84,73,64,65,63,56,92,72,41,30.14,30.07,2,0,13,0.00
2013-9-6,86,75,68,67,64,61,85,70,48,30.14,30.03,2,0,8,0.00
2013-9-7,88,76,66,69,67,64,96,76,49,30.10,29.97,5,1,12,0.00
2013-9-8,87,77,67,71,68,66,96,77,53,29.99,29.91,2,0,12,0.00
2013-9-9,89,79,73,72,70,67,92,76,49,30.06,29.97,5,1,11,0.00
2013-9-10,90,79,70,70,69,64,94,72,42,30.18,30.08,4,1,10,0.00
2013-9-11,88,79,70,71,68,64,96,73,47,30.20,30.07,3,0,10,0.00
2013-9-12,88,78,70,70,68,66,93,74,51,30.08,29.89,5,1,12,0.00
2013-9-13,81,74,66,66,60,52,90,64,38,29.94,29.85,5,2,14,0.00
2013-9-14,77,66,57,58,53,49,77,63,45,30.04,29.94,3,1,14,0.00
2013-9-15,83,68,58,63,59,56,93,74,43,30.15,30.05,5,1,14,0.00
2013-9-16,83,75,64,66,61,58,92,63,43,30.14,30.06,1,0,7,0.00
2013-9-17,82,74,67,64,62,60,80,67,51,30.18,30.09,6,3,15,0.00
2013-9-18,80,75,70,62,60,57,75,60,51,30.20,30.09,5,2,6,0.00
2013-9-19,85,77,63,65,63,61,94,63,47,30.17,30.02,4,2,10,0.00
2013-9-20,86,79,66,65,63,60,96,60,41,30.05,29.84,6,3,15,0.00
2013-9-21,76,69,62,69,64,58,96,87,68,29.86,29.72,4,2,9,1.37
2013-9-22,75,70,62,58,55,53,84,61,45,29.88,29.81,4,1,12,0.00
2013-9-23,79,68,60,59,57,54,83,70,47,29.99,29.88,4,1,9,0.00
2013-9-24,70,69,66,62,62,60,84,78,73,30.00,29.88,4,2,11,0.00
2013-9-25,68,66,65,66,64,62,96,91,82,29.87,29.81,0,0,9,0.01
2013-9-26,79,70,65,64,62,60,94,80,54,29.99,29.86,3,0,8,0.00
2013-9-27,78,69,59,63,59,55,94,74,44,30.13,30.00,2,0,8,0.00
2013-9-28,78,66,57,61,58,56,96,77,50,30.19,30.08,4,1,9,0.00
2013-9-29,74,68,56,62,56,54,96,67,50,30.13,30.01,5,2,11,0.00
2013-9-30,75,66,58,62,58,54,96,78,49,30.07,29.98,5,1,13,0.00
2013-10-1,81,68,58,64,61,56,95,80,54,30.14,30.03,4,0,13,0.00
2013-10-2,83,71,62,68,64,61,96,81,53,30.15,30.03,3,0,13,0.00
2013-10-3,83,74,67,67,64,60,94,73,45,30.10,30.02,7,2,13,0.00
2013-10-4,82,71,62,67,64,61,96,80,56,30.14,30.05,2,0,13,0.00
2013-10-5,85,74,66,66,65,62,97,77,49,30.10,29.97,6,2,14,0.00
2013-10-6,82,71,64,68,65,62,95,80,57,29.98,29.80,9,4,22,0.00
2013-10-7,70,62,56,57,51,47,90,70,44,30.03,29.88,6,2,22,0.00
2013-10-8,73,63,56,56,50,46,70,62,48,30.11,30.02,4,2,15,0.00
2013-10-9,76,65,57,62,57,54,93,77,56,30.18,30.08,2,0,15,0.00
2013-10-10,78,66,57,61,58,55,96,76,45,30.14,30.01,4,0,10,0.00
2013-10-11,79,65,52,57,53,47,96,70,34,30.08,29.98,2,0,10,0.00
2013-10-12,79,65,52,58,54,51,96,72,38,30.09,30.00,3,1,12,0.00
2013-10-13,80,66,54,61,56,53,96,73,42,30.20,30.10,4,1,12,0.00
2013-10-14,79,68,58,61,59,56,94,74,52,30.20,30.07,4,1,10,0.00
2013-10-15,72,67,62,60,58,56,89,74,60,30.13,30.02,7,3,15,0.00
2013-10-16,71,65,61,62,59,57,91,80,67,30.04,29.93,5,2,15,0.01
2013-10-18,66,57,51,50,48,46,92,74,50,30.05,29.95,3,0,10,0.00
2013-10-19,68,57,52,52,50,44,92,79,56,30.02,29.90,5,1,14,0.00
2013-10-20,64,52,41,44,41,35,91,70,35,30.10,30.02,3,0,14,0.00
2013-10-21,70,53,39,48,43,37,97,72,37,30.13,30.00,3,1,14,0.00
2013-10-22,68,59,54,52,50,47,90,73,52,30.03,29.86,3,1,9,0.00
2013-10-23,54,51,43,49,39,32,89,66,43,30.11,29.85,8,3,20,0.00
2013-10-24,59,48,39,41,37,35,89,69,47,30.27,30.11,4,2,20,0.00
2013-10-25,52,42,35,34,28,24,75,59,39,30.47,30.30,5,2,13,0.00
2013-10-26,59,44,28,34,30,26,92,63,35,30.36,30.16,7,3,14,0.00
2013-10-27,62,55,49,51,44,35,83,66,56,30.16,30.09,6,2,14,0.00
2013-10-28,61,56,50,56,53,48,96,90,80,30.27,30.12,3,0,14,0.00
2013-10-29,70,60,54,58,56,53,97,86,62,30.33,30.22,2,0,14,0.00
2013-10-30,79,65,56,59,56,54,97,75,45,30.28,30.12,6,1,14,0.00
2013-10-31,73,66,60,64,59,54,88,78,67,30.13,29.73,11,6,24,0.03
2013-11-1,72,65,53,65,54,43,92,69,38,29.82,29.70,10,2,24,0.01
2013-11-2,65,54,44,48,42,34,94,68,34,30.10,29.82,0,0,24,0.00
2013-11-3,59,50,43,41,39,37,84,66,44,30.29,30.11,0,0,24,0.00
2013-11-4,63,49,38,42,38,35,95,69,36,30.43,30.30,10,3,24,0.00
2013-11-5,65,53,44,44,40,36,81,62,38,30.45,30.31,5,1,24,0.00
2013-11-6,72,61,49,57,51,42,93,72,57,30.31,30.08,10,4,24,0.01
2013-11-7,64,54,45,60,43,30,96,68,36,30.28,30.02,8,4,24,0.37
2013-11-8,57,46,39,32,26,20,77,48,24,30.41,30.28,5,3,24,0.00
2013-11-9,56,45,32,38,33,30,91,66,40,30.36,30.25,6,2,13,0.00
2013-11-10,69,54,44,42,38,29,88,58,23,30.33,30.24,5,1,13,0.00
2013-11-11,66,52,42,37,29,26,60,43,22,30.33,30.16,4,2,13,0.00
2013-11-12,52,44,33,42,29,14,74,58,37,30.54,30.14,11,6,25,0.00
2013-11-13,45,35,30,22,18,14,72,51,29,30.67,30.50,8,4,27,0.00
2013-11-14,57,38,23,26,20,15,87,56,19,30.52,30.31,4,1,12,0.00
2013-11-15,49,40,34,42,29,24,81,67,51,30.30,30.19,0,0,12,0.01
2013-11-16,58,53,48,55,51,47,97,92,88,30.23,30.12,4,0,5,0.00
2013-11-17,67,62,59,65,59,55,96,91,84,30.11,29.86,5,0,9,0.09
2013-11-18,67,59,50,66,41,29,96,55,28,30.14,29.87,0,0,9,0.00
2013-11-19,53,47,42,32,27,23,56,46,33,30.23,30.13,9,4,22,0.00
2013-11-20,59,46,32,34,31,27,89,58,30,30.32,30.18,7,2,13,0.00
2013-11-21,62,55,50,50,43,34,79,63,52,30.36,30.26,6,3,13,0.00
2013-11-22,59,56,53,56,53,50,96,91,80,30.32,30.19,6,2,11,0.06
2013-11-23,54,48,38,52,38,19,93,71,44,30.38,30.20,9,5,21,0.00
2013-11-24,38,32,25,20,12,5,61,45,27,30.58,30.40,10,6,21,0.00
2013-11-25,44,35,28,32,16,8,90,49,25,30.49,30.24,6,1,21,0.29
2013-11-26,44,38,34,43,36,32,97,94,83,30.22,29.78,7,3,21,2.04
2013-11-27,39,33,26,34,22,15,84,65,51,30.32,29.84,10,7,26,0.00
2013-11-28,44,31,21,23,18,14,78,62,38,30.49,30.33,4,1,26,0.00
2013-11-29,50,36,24,30,24,22,92,67,35,30.59,30.49,4,1,26,0.00
2013-11-30,55,48,39,27,26,25,60,44,31,30.43,30.34,6,4,11,0.00
2013-12-1,55,42,29,37,31,25,85,65,46,30.33,30.03,4,1,11,0.00
2013-12-2,49,47,44,48,44,38,97,90,67,30.02,29.82,4,1,11,0.14
2013-12-3,54,51,49,53,50,48,98,97,97,29.87,29.82,0,0,11,0.01
2013-12-4,72,61,53,61,57,52,98,87,62,29.96,29.86,11,4,20,0.00
2013-12-5,74,68,64,66,64,60,93,87,73,30.00,29.89,8,0,15,0.00
2013-12-6,69,54,40,66,52,38,95,92,89,30.15,29.86,7,1,15,1.04
2013-12-7,41,39,37,38,34,33,90,82,75,30.41,30.18,9,5,18,0.00
2013-12-8,47,42,36,46,40,34,97,95,87,30.34,30.11,0,0,18,0.84
2013-12-9,53,47,42,49,45,38,98,91,80,30.17,30.06,4,1,10,0.13
2013-12-10,42,13,38,40,-56,-100,95,30,92,30.39,30.02,3,-681,10,0.21
2013-12-11,-200,0,200,-100,-100,-100,0,0,100,30.44,30.33,0,-999,0,0.00
2013-12-16,55,48,40,32,32,31,73,55,41,30.19,30.11,6,3,10,0.00
2013-12-17,61,48,35,36,32,27,81,56,38,30.25,30.06,7,3,17,0.00
2013-12-18,50,39,29,27,23,17,80,54,27,30.37,30.26,4,1,17,0.00
2013-12-19,61,42,28,29,26,24,89,58,24,30.33,30.17,7,2,17,0.00
2013-12-20,62,52,40,51,39,28,75,60,44,30.18,30.07,9,4,18,0.00
2013-12-21,69,60,57,63,56,51,97,87,77,30.06,29.82,0,0,18,0.05
2013-12-22,70,59,55,65,56,54,96,92,83,30.06,29.79,9,4,16,1.36
2013-12-23,55,44,33,54,38,26,97,80,68,30.37,30.04,8,4,18,0.02
2013-12-24,36,32,29,26,19,13,78,61,41,30.52,30.37,8,4,18,0.00
2013-12-25,47,33,22,26,20,15,81,60,39,30.50,30.35,5,2,11,0.00
2013-12-26,49,36,26,30,27,22,88,70,46,30.42,30.33,3,0,11,0.00
2013-12-27,52,36,26,30,24,18,91,67,26,30.50,30.38,2,0,11,0.00
2013-12-28,40,35,29,37,32,26,96,87,71,30.42,30.00,4,1,11,0.73
2013-12-29,48,42,38,44,40,36,98,91,77,30.07,29.90,3,1,11,0.29
2013-12-30,42,39,37,40,34,30,96,81,70,30.25,30.06,6,2,11,0.00
2013-12-31,40,35,31,28,26,24,86,70,54,30.47,30.38,3,1,8,0.00
2014-1-1,50,36,27,33,29,25,96,80,46,30.38,30.13,7,2,10,0.01
2014-1-2,47,38,23,46,33,12,97,80,63,30.22,29.82,14,7,27,0.22